Home   Weather   Alexandria   Past weeks

Flag for USA Past Weather in Alexandria, Virginia, USA — Yesterday and Last 2 Weeks

Now
50 °F

More clouds than sun.


Feels Like: 45 °F
Forecast: 40 / 54 °F
Wind: 13 mph from North

Location: Reagan National Airport

Current Time: Jan 19, 2017 at 12:18:26 pm

Latest Report: Jan 19, 2017 at 10:52 am


Visibility: 10 mi

Pressure: 30.11 "Hg

Humidity: 61%

Dew Point: 37 °F

Location of AlexandriaLocation

Past Weather in Alexandria — Graph

°F

Alexandria Temperature Yesterday

Maximum temperature yesterday: 60 °F (at 12:52 pm)
Minimum temperature yesterday: 44 °F (at 6:42 am)
Average temperature yesterday: 50 °F

High & Low Weather Summary for the Past Weeks

 TemperatureHumidityPressure
High72 °F (Jan 12, 2:52 pm)100% (Jan 4, 10:52 am)30.80 "Hg (Jan 4, 10:52 am)
Low15 °F (Jan 8, 6:52 am)24% (Jan 4, 5:52 pm)29.62 "Hg (Jan 4, 12:52 pm)
Average39 °F64%30.28 "Hg
* Reported Jan 4 10:52 am — Jan 19 10:52 am, Alexandria, Weather by CustomWeather, © 2017

Note: Actual official high and low records may vary slightly from our data, if they occured in-between our weather recording intervals... More about our weather records

Advertising

Alexandria Weather History for the Previous 24 Hours

Scroll right to see more
 ConditionsComfort  
Time TempWeatherWind HumidityBarometerVisibility
10:52 am
Thu, Jan 19
50 °FMore clouds than sun.13 mph61%30.11 "Hg10 mi
9:52 am49 °FPartly sunny.12 mph64%30.11 "Hg10 mi
8:52 am48 °FOvercast.10 mph66%30.11 "Hg10 mi
7:52 am46 °FMostly cloudy.7 mph71%30.11 "Hg10 mi
6:52 am46 °FMostly cloudy.6 mph71%30.10 "Hg10 mi
5:52 am43 °FPassing clouds.8 mph76%30.08 "Hg10 mi
4:52 am43 °FPassing clouds.9 mph76%30.08 "Hg10 mi
3:52 am45 °FPassing clouds.9 mph71%30.08 "Hg10 mi
2:52 am46 °FOvercast.7 mph68%30.09 "Hg10 mi
1:52 am47 °FOvercast.7 mph66%30.09 "Hg10 mi
12:52 am47 °FOvercast.7 mph66%30.08 "Hg10 mi
11:52 pm
Wed, Jan 18
48 °FPassing clouds.9 mph63%30.09 "Hg10 mi
10:52 pm48 °FOvercast.12 mph63%30.07 "Hg10 mi
9:52 pm48 °FPassing clouds.14 mph63%30.08 "Hg10 mi
8:52 pm49 °FPassing clouds.15 mph61%30.09 "Hg10 mi
7:52 pm49 °FPassing clouds.13 mph61%30.08 "Hg10 mi
6:52 pm50 °FPassing clouds.15 mph59%30.06 "Hg10 mi
5:52 pm52 °FPassing clouds.15 mph57%30.05 "Hg10 mi
4:52 pm56 °FScattered clouds.15 mph49%30.01 "Hg10 mi
3:52 pm57 °FPartly sunny.14 mph49%29.98 "Hg10 mi
2:52 pm59 °FPartly sunny.17 mph49%29.96 "Hg10 mi
1:52 pm58 °FPartly sunny.18 mph51%29.95 "Hg10 mi
12:52 pm60 °FPartly sunny.17 mph49%29.94 "Hg10 mi
Weather by CustomWeather, © 2017

See weather overviewHow to use our weather pages